TAM3939 SBRJ-SBGR

Flight info

Callsign TAM3939
Flight time 0h 48m
Altitude 26000
Route ESORU UZ10 EDMUS
Aircraft A319/M-SDE3FGHIRWY/LB1

Departure

Time 2026-05-04 18:09
Airport Santos Dumont Airport (SBRJ)

Arrival

Time 2026-05-04 18:57
Airport São Paulo/Guarulhos–Governor André Franco Montoro International Airport (SBGR)
Time Latitude Longitude Altitude Speed Heading
2026-05-04 17:47 -22.91136 -43.16590 22 ft 0 kts 267°
2026-05-04 18:00 -22.91135 -43.16565 22 ft 4 kts 266°
2026-05-04 18:00 -22.91135 -43.16536 22 ft 4 kts 282°
2026-05-04 18:00 -22.91143 -43.16518 22 ft 3 kts 354°
2026-05-04 18:01 -22.91166 -43.16516 22 ft 1 kts 356°
2026-05-04 18:01 -22.91167 -43.16516 23 ft 0 kts 356°
2026-05-04 18:03 -22.91166 -43.16516 22 ft 1 kts 356°
2026-05-04 18:03 -22.91152 -43.16517 22 ft 3 kts 356°
2026-05-04 18:04 -22.91121 -43.16519 22 ft 5 kts 355°
2026-05-04 18:04 -22.91080 -43.16532 22 ft 7 kts 347°
2026-05-04 18:04 -22.90956 -43.16543 22 ft 11 kts 356°
2026-05-04 18:05 -22.90873 -43.16549 22 ft 13 kts 356°
2026-05-04 18:05 -22.90775 -43.16542 22 ft 15 kts
2026-05-04 18:05 -22.90661 -43.16549 22 ft 18 kts 356°
2026-05-04 18:05 -22.90540 -43.16556 22 ft 13 kts 356°
2026-05-04 18:06 -22.90497 -43.16488 23 ft 0 kts 86°
2026-05-04 18:06 -22.90497 -43.16484 23 ft 1 kts 86°
2026-05-04 18:07 -22.90496 -43.16460 23 ft 6 kts 86°
2026-05-04 18:07 -22.90492 -43.16408 24 ft 8 kts 84°
2026-05-04 18:07 -22.90472 -43.16346 24 ft 9 kts 65°
2026-05-04 18:07 -22.90490 -43.16320 24 ft 2 kts 173°
2026-05-04 18:08 -22.90491 -43.16320 24 ft 0 kts 174°
2026-05-04 18:08 -22.90498 -43.16319 24 ft 13 kts 174°
2026-05-04 18:08 -22.90936 -43.16290 23 ft 110 kts 176°
2026-05-04 18:08 -22.91903 -43.16231 318 ft 151 kts 176°
2026-05-04 18:09 -22.93699 -43.15284 1889 ft 147 kts 126°
2026-05-04 18:09 -22.94777 -43.13362 2971 ft 152 kts 135°
2026-05-04 18:10 -22.95604 -43.12622 3502 ft 159 kts 139°
2026-05-04 18:10 -22.96532 -43.11815 3829 ft 182 kts 139°
2026-05-04 18:10 -22.97587 -43.10901 4169 ft 206 kts 140°
2026-05-04 18:10 -22.98791 -43.09888 4528 ft 232 kts 145°
2026-05-04 18:11 -23.00421 -43.09396 4980 ft 262 kts 183°
2026-05-04 18:11 -23.02171 -43.10081 5714 ft 276 kts 213°
2026-05-04 18:11 -23.03674 -43.11405 6700 ft 280 kts 224°
2026-05-04 18:11 -23.05063 -43.12909 7704 ft 284 kts 226°
2026-05-04 18:12 -23.06453 -43.14452 8653 ft 288 kts 228°
2026-05-04 18:12 -23.07482 -43.16300 9533 ft 290 kts 257°
2026-05-04 18:12 -23.07457 -43.18460 10436 ft 290 kts 288°
2026-05-04 18:12 -23.06383 -43.20322 11117 ft 304 kts 316°
2026-05-04 18:13 -23.04471 -43.21451 11408 ft 330 kts 345°
2026-05-04 18:13 -23.02115 -43.21697 11781 ft 348 kts 355°
2026-05-04 18:13 -22.97833 -43.23895 13062 ft 353 kts 314°
2026-05-04 18:14 -22.96236 -43.25926 13799 ft 354 kts 305°
2026-05-04 18:14 -22.94794 -43.28102 14551 ft 356 kts 303°
2026-05-04 18:14 -22.93345 -43.30295 15242 ft 359 kts 304°
2026-05-04 18:15 -22.90198 -43.34555 16589 ft 365 kts 308°
2026-05-04 18:15 -22.86826 -43.38728 17889 ft 371 kts 309°
2026-05-04 18:15 -22.85102 -43.40821 18528 ft 374 kts 309°
2026-05-04 18:16 -22.83364 -43.42932 19155 ft 377 kts 308°
2026-05-04 18:16 -22.81616 -43.45059 19784 ft 379 kts 308°
2026-05-04 18:16 -22.79858 -43.47200 20430 ft 381 kts 308°
2026-05-04 18:17 -22.76319 -43.51515 21659 ft 385 kts 308°
2026-05-04 18:17 -22.74535 -43.53694 22207 ft 387 kts 307°
2026-05-04 18:17 -22.71983 -43.58751 23274 ft 384 kts 283°
2026-05-04 18:18 -22.71547 -43.61604 23783 ft 385 kts 272°
2026-05-04 18:18 -22.71687 -43.64508 24338 ft 387 kts 262°
2026-05-04 18:18 -22.72076 -43.67391 24835 ft 385 kts 261°
2026-05-04 18:18 -22.72468 -43.70273 25294 ft 389 kts 262°
2026-05-04 18:19 -22.73264 -43.76090 26073 ft 391 kts 260°
2026-05-04 18:19 -22.73949 -43.78930 26141 ft 389 kts 252°
2026-05-04 18:19 -22.74853 -43.81679 26148 ft 386 kts 252°
2026-05-04 18:20 -22.75757 -43.84416 26147 ft 386 kts 252°
2026-05-04 18:20 -22.76662 -43.87151 26146 ft 385 kts 252°
2026-05-04 18:20 -22.77566 -43.89885 26146 ft 386 kts 252°
2026-05-04 18:20 -22.78472 -43.92621 26145 ft 386 kts 252°
2026-05-04 18:21 -22.79380 -43.95357 26147 ft 386 kts 252°
2026-05-04 18:21 -22.80287 -43.98095 26146 ft 386 kts 252°
2026-05-04 18:21 -22.81190 -44.00830 26146 ft 385 kts 252°
2026-05-04 18:21 -22.82092 -44.03566 26144 ft 385 kts 251°
2026-05-04 18:22 -22.82993 -44.06302 26139 ft 386 kts 251°
2026-05-04 18:22 -22.83895 -44.09041 26139 ft 386 kts 251°
2026-05-04 18:22 -22.84797 -44.11782 26142 ft 386 kts 251°
2026-05-04 18:22 -22.85690 -44.14486 26143 ft 386 kts 251°
2026-05-04 18:23 -22.86604 -44.17258 26149 ft 386 kts 251°
2026-05-04 18:23 -22.87493 -44.19957 26145 ft 386 kts 252°
2026-05-04 18:23 -22.88396 -44.22701 26143 ft 385 kts 252°
2026-05-04 18:23 -22.89291 -44.25430 26141 ft 385 kts 252°
2026-05-04 18:24 -22.90186 -44.28165 26138 ft 385 kts 252°
2026-05-04 18:24 -22.91083 -44.30899 26135 ft 385 kts 252°
2026-05-04 18:24 -22.91981 -44.33630 26133 ft 384 kts 252°
2026-05-04 18:24 -22.92878 -44.36362 26133 ft 385 kts 252°
2026-05-04 18:25 -22.93772 -44.39095 26131 ft 384 kts 252°
2026-05-04 18:25 -22.94668 -44.41828 26130 ft 384 kts 252°
2026-05-04 18:25 -22.95564 -44.44561 26130 ft 385 kts 251°
2026-05-04 18:25 -22.96460 -44.47297 26123 ft 385 kts 251°
2026-05-04 18:26 -22.97355 -44.50041 26117 ft 387 kts 251°
2026-05-04 18:26 -22.98253 -44.52795 26117 ft 388 kts 251°
2026-05-04 18:26 -22.99152 -44.55556 26116 ft 388 kts 251°
2026-05-04 18:26 -23.00053 -44.58321 26115 ft 389 kts 251°
2026-05-04 18:27 -23.00954 -44.61091 26116 ft 390 kts 251°
2026-05-04 18:27 -23.01859 -44.63867 26119 ft 391 kts 251°
2026-05-04 18:27 -23.02764 -44.66650 26125 ft 391 kts 251°
2026-05-04 18:27 -23.03507 -44.69487 26127 ft 391 kts 256°
2026-05-04 18:28 -23.04151 -44.72358 26128 ft 391 kts 256°
2026-05-04 18:28 -23.04793 -44.75226 26132 ft 391 kts 256°
2026-05-04 18:28 -23.05438 -44.78097 26137 ft 392 kts 256°
2026-05-04 18:28 -23.06075 -44.80933 26139 ft 391 kts 256°
2026-05-04 18:29 -23.06728 -44.83840 26140 ft 391 kts 256°
2026-05-04 18:29 -23.07374 -44.86711 26142 ft 392 kts 256°
2026-05-04 18:29 -23.08023 -44.89584 26142 ft 392 kts 256°
2026-05-04 18:29 -23.08451 -44.91483 26142 ft 392 kts 256°
2026-05-04 18:30 -23.09942 -44.98165 26143 ft 392 kts 256°
2026-05-04 18:30 -23.10585 -45.01041 26144 ft 392 kts 256°
2026-05-04 18:30 -23.11018 -45.02984 26145 ft 392 kts 256°
2026-05-04 18:31 -23.11658 -45.05861 26147 ft 392 kts 256°
2026-05-04 18:31 -23.12503 -45.09672 26146 ft 392 kts 256°
2026-05-04 18:31 -23.12936 -45.11617 26145 ft 392 kts 256°
2026-05-04 18:31 -23.13579 -45.14495 26143 ft 392 kts 256°
2026-05-04 18:32 -23.14223 -45.17376 26144 ft 392 kts 256°
2026-05-04 18:32 -23.14868 -45.20260 26142 ft 393 kts 256°
2026-05-04 18:32 -23.15512 -45.23144 26143 ft 393 kts 256°
2026-05-04 18:32 -23.16145 -45.25998 26141 ft 393 kts 256°
2026-05-04 18:33 -23.16784 -45.28889 26142 ft 393 kts 256°
2026-05-04 18:33 -23.17422 -45.31780 26141 ft 394 kts 256°
2026-05-04 18:33 -23.18060 -45.34671 26121 ft 394 kts 256°
2026-05-04 18:33 -23.18700 -45.37567 25872 ft 394 kts 256°
2026-05-04 18:34 -23.19340 -45.40467 25623 ft 395 kts 256°
2026-05-04 18:34 -23.19979 -45.43349 25097 ft 391 kts 256°
2026-05-04 18:34 -23.20617 -45.46213 24462 ft 388 kts 256°
2026-05-04 18:34 -23.21251 -45.49054 23847 ft 385 kts 256°
2026-05-04 18:35 -23.21879 -45.51877 23241 ft 383 kts 256°
2026-05-04 18:35 -23.22497 -45.54674 22663 ft 380 kts 256°
2026-05-04 18:35 -23.23146 -45.57463 22092 ft 379 kts 255°
2026-05-04 18:35 -23.23865 -45.60202 21532 ft 377 kts 253°
2026-05-04 18:36 -23.24622 -45.62902 21002 ft 372 kts 253°
2026-05-04 18:36 -23.25393 -45.65572 20477 ft 368 kts 252°
2026-05-04 18:36 -23.26159 -45.68226 19949 ft 366 kts 253°
2026-05-04 18:36 -23.26906 -45.70853 19429 ft 361 kts 253°
2026-05-04 18:37 -23.27634 -45.73453 18911 ft 357 kts 253°
2026-05-04 18:37 -23.28346 -45.76024 18379 ft 353 kts 253°
2026-05-04 18:37 -23.29044 -45.78566 17843 ft 349 kts 253°
2026-05-04 18:37 -23.29734 -45.81083 17290 ft 346 kts 254°
2026-05-04 18:38 -23.30415 -45.83580 16746 ft 343 kts 253°
2026-05-04 18:38 -23.31092 -45.86055 16195 ft 340 kts 253°
2026-05-04 18:38 -23.31757 -45.88475 15650 ft 338 kts 253°
2026-05-04 18:38 -23.32427 -45.90913 15096 ft 335 kts 253°
2026-05-04 18:39 -23.33113 -45.93382 14922 ft 348 kts 253°
2026-05-04 18:39 -23.33833 -45.95927 14798 ft 354 kts 253°
2026-05-04 18:39 -23.34563 -45.98487 14625 ft 354 kts 253°
2026-05-04 18:39 -23.35293 -46.01045 14445 ft 354 kts 253°
2026-05-04 18:40 -23.36022 -46.03599 14277 ft 353 kts 253°
2026-05-04 18:40 -23.36747 -46.06153 14100 ft 352 kts 253°
2026-05-04 18:40 -23.37466 -46.08699 13925 ft 352 kts 253°
2026-05-04 18:40 -23.38181 -46.11243 13753 ft 351 kts 253°
2026-05-04 18:41 -23.38894 -46.13783 13582 ft 351 kts 253°
2026-05-04 18:41 -23.39608 -46.16324 13404 ft 351 kts 253°
2026-05-04 18:41 -23.40323 -46.18858 13230 ft 350 kts 253°
2026-05-04 18:41 -23.41038 -46.21388 13059 ft 349 kts 253°
2026-05-04 18:42 -23.41750 -46.23914 12896 ft 349 kts 253°
2026-05-04 18:42 -23.42437 -46.26438 12712 ft 348 kts 256°
2026-05-04 18:42 -23.42699 -46.29053 12538 ft 347 kts 270°
2026-05-04 18:42 -23.42363 -46.31649 12364 ft 348 kts 284°
2026-05-04 18:43 -23.41448 -46.34087 12200 ft 349 kts 298°
2026-05-04 18:43 -23.40130 -46.36314 12015 ft 350 kts 302°
2026-05-04 18:43 -23.38790 -46.38522 11844 ft 349 kts 302°
2026-05-04 18:43 -23.37453 -46.40726 11666 ft 348 kts 302°
2026-05-04 18:44 -23.36122 -46.42923 11501 ft 347 kts 302°
2026-05-04 18:44 -23.35243 -46.44378 11384 ft 346 kts 302°
2026-05-04 18:44 -23.33478 -46.47301 11144 ft 345 kts 302°
2026-05-04 18:44 -23.32165 -46.49480 10664 ft 339 kts 302°
2026-05-04 18:45 -23.30919 -46.51543 10547 ft 313 kts 302°
2026-05-04 18:45 -23.29747 -46.53481 10436 ft 301 kts 302°
2026-05-04 18:45 -23.28618 -46.55350 10254 ft 291 kts 303°
2026-05-04 18:45 -23.27516 -46.57174 10035 ft 286 kts 303°
2026-05-04 18:46 -23.26486 -46.59007 9923 ft 283 kts 295°
2026-05-04 18:46 -23.25799 -46.61013 9802 ft 283 kts 288°
2026-05-04 18:46 -23.25176 -46.63043 9700 ft 283 kts 289°
2026-05-04 18:46 -23.24550 -46.65071 9563 ft 283 kts 289°
2026-05-04 18:47 -23.23925 -46.67095 9389 ft 282 kts 289°
2026-05-04 18:47 -23.23546 -46.69182 9181 ft 283 kts 274°
2026-05-04 18:47 -23.23692 -46.71280 8981 ft 284 kts 261°
2026-05-04 18:47 -23.24091 -46.73379 8779 ft 283 kts 260°
2026-05-04 18:48 -23.24479 -46.75477 8585 ft 283 kts 261°
2026-05-04 18:48 -23.24861 -46.77570 8378 ft 282 kts 260°
2026-05-04 18:48 -23.25465 -46.79599 8147 ft 284 kts 246°
2026-05-04 18:48 -23.26549 -46.81399 7770 ft 286 kts 231°
2026-05-04 18:49 -23.27877 -46.83004 7517 ft 285 kts 230°
2026-05-04 18:49 -23.29434 -46.84317 7279 ft 287 kts 207°
2026-05-04 18:49 -23.31370 -46.84834 7032 ft 290 kts 182°
2026-05-04 18:49 -23.33340 -46.84416 6872 ft 291 kts 156°
2026-05-04 18:50 -23.34975 -46.83137 6764 ft 292 kts 130°
2026-05-04 18:50 -23.36133 -46.81333 6659 ft 291 kts 122°
2026-05-04 18:50 -23.37244 -46.79492 6539 ft 291 kts 122°
2026-05-04 18:50 -23.38354 -46.77653 6423 ft 288 kts 122°
2026-05-04 18:51 -23.39433 -46.75872 6318 ft 275 kts 123°
2026-05-04 18:51 -23.40464 -46.74176 6204 ft 262 kts 123°
2026-05-04 18:51 -23.41464 -46.72565 6097 ft 252 kts 127°
2026-05-04 18:51 -23.42670 -46.71233 6008 ft 243 kts 142°
2026-05-04 18:52 -23.44074 -46.70301 5820 ft 232 kts 157°
2026-05-04 18:52 -23.45568 -46.69739 5560 ft 223 kts 163°
2026-05-04 18:52 -23.46910 -46.68918 5319 ft 221 kts 140°
2026-05-04 18:52 -23.47850 -46.67621 5070 ft 218 kts 118°
2026-05-04 18:53 -23.48261 -46.66070 4889 ft 211 kts 96°
2026-05-04 18:53 -23.48132 -46.64506 4729 ft 206 kts 75°
2026-05-04 18:53 -23.47732 -46.63024 4579 ft 203 kts 75°
2026-05-04 18:53 -23.47340 -46.61560 4440 ft 200 kts 75°
2026-05-04 18:54 -23.46952 -46.60117 4343 ft 195 kts 75°
2026-05-04 18:54 -23.46586 -46.58756 4254 ft 181 kts 75°
2026-05-04 18:54 -23.46246 -46.57492 4081 ft 166 kts 75°
2026-05-04 18:54 -23.45935 -46.56339 3890 ft 153 kts 75°
2026-05-04 18:55 -23.45643 -46.55251 3708 ft 147 kts 73°
2026-05-04 18:55 -23.45077 -46.53152 3324 ft 143 kts 71°
2026-05-04 18:55 -23.44799 -46.52112 3139 ft 143 kts 71°
2026-05-04 18:56 -23.44517 -46.51074 2935 ft 142 kts 71°
2026-05-04 18:56 -23.44238 -46.50039 2768 ft 143 kts 72°
2026-05-04 18:56 -23.43960 -46.49005 2564 ft 142 kts 72°
2026-05-04 18:56 -23.43688 -46.47997 2463 ft 129 kts 73°
2026-05-04 18:57 -23.43477 -46.47213 2464 ft 84 kts 73°
2026-05-04 18:57 -23.43359 -46.46777 2464 ft 45 kts 73°
2026-05-04 18:57 -23.43274 -46.46480 2466 ft 29 kts 68°
2026-05-04 18:57 -23.43156 -46.46297 2467 ft 28 kts 44°
2026-05-04 18:58 -23.43044 -46.46183 2463 ft 19 kts 44°
2026-05-04 18:58 -23.42947 -46.46140 2462 ft 16 kts 343°
2026-05-04 18:58 -23.42835 -46.46176 2463 ft 17 kts 344°
2026-05-04 18:58 -23.42716 -46.46212 2464 ft 19 kts 344°
2026-05-04 18:59 -23.42617 -46.46267 2463 ft 15 kts 289°
2026-05-04 18:59 -23.42644 -46.46387 2461 ft 18 kts 253°
2026-05-04 18:59 -23.42682 -46.46526 2464 ft 20 kts 253°
2026-05-04 18:59 -23.42722 -46.46673 2464 ft 20 kts 253°
2026-05-04 19:00 -23.42764 -46.46826 2464 ft 22 kts 253°
2026-05-04 19:00 -23.42807 -46.46988 2467 ft 22 kts 253°
2026-05-04 19:00 -23.42853 -46.47159 2466 ft 25 kts 253°
2026-05-04 19:00 -23.42903 -46.47343 2464 ft 23 kts 254°
2026-05-04 19:01 -23.42927 -46.47452 2468 ft 9 kts 276°
2026-05-04 19:01 -23.42881 -46.47487 2464 ft 8 kts 345°
2026-05-04 19:01 -23.42864 -46.47523 2464 ft 5 kts 250°
2026-05-04 19:01 -23.42880 -46.47571 2468 ft 9 kts 253°
2026-05-04 19:02 -23.42901 -46.47651 2463 ft 14 kts 254°
2026-05-04 19:02 -23.42929 -46.47763 2464 ft 16 kts 260°
2026-05-04 19:02 -23.42872 -46.47838 2465 ft 15 kts 358°
2026-05-04 19:02 -23.42810 -46.47778 2467 ft 8 kts 75°
2026-05-04 19:03 -23.42803 -46.47749 2465 ft 2 kts 73°
2026-05-04 19:03 -23.42801 -46.47744 2465 ft 0 kts 73°